Preview of NWS' New Version of Forecast
This preview is not operational and should not be used for support decisions.
Latest weather observations around

Wenatchee, Pangborn Memorial Airport (KEAT)

Using English Units (Switch to International System of Units)
Date/ Time (PDT) Wind (mph) Vis. (mi) Weather Sky Cond. Temp (°F) Rel. Humidity Wind Chill (°F) Heat Index (°F) Pressure Precip. (in)
Air Dwpt 6 hour Altimeter (inHg) Sea level (inHg) 1 hr 3 hr 6 hr
Max Min
Apr 22 21:55 W 5 10 Clear CLR 53 22     29%     30.27 30.27      
Apr 22 20:55 Calm 10 Clear CLR 53 22     29%     30.25 30.26      
Apr 22 19:55 Calm 10 Clear CLR 56 19     23%     30.22 30.23      
Apr 22 18:55 S 3 10 Clear CLR 59 17     19%     30.21 30.22      
Apr 22 17:55 Calm 10 Clear CLR 60 15     17%     30.22 30.23      
Apr 22 16:55 WSW 9 10 Clear CLR 60 16     18%     30.23 30.23      
Apr 22 15:55 WSW 9 10 Clear CLR 59 17     19%     30.24 30.24      
Apr 22 14:55 5 10 Clear CLR 58 19     22%     30.25 30.26      
Apr 22 13:55   10 Clear CLR 57 21     24%     30.27 30.28      
Apr 22 12:55 3 10 Clear CLR 54 22     28%     30.29 30.3      
Apr 22 11:55 W 7 10 Clear CLR 53 23     31%     30.31 30.32      
Apr 22 10:55 WNW 11 10 Clear CLR 50 24     36% 46   30.32 30.34      
Apr 22 09:55 NW 17 10 Clear CLR 47 26     44% 40   30.33 30.34      
Apr 22 08:55 NW 14 10 Clear CLR 46 27     47% 40   30.33 30.35      
Apr 22 07:55 NW 10 7 Clear CLR 43 27     53% 37   30.33 30.35      
Apr 22 06:55 NNW 9 10 Clear CLR 42 27     55% 37   30.32 30.34      
Apr 22 05:55 W 3 10 Clear CLR 40 26     57% 38   30.31 30.33      
Apr 22 04:55 NNW 8 10 Clear CLR 40 25     55% 34   30.31 30.33      
Apr 22 03:55 NNW 7 10 Clear CLR 41 25     53% 36   30.3 30.31      
Apr 22 02:55 N 6 10 Clear CLR 40 24     53% 36   30.29 30.31      
Apr 22 01:55 NNW 6 10 Clear CLR 40 24     53% 36   30.29 30.3      
Apr 22 00:55 W 7 10 Clear CLR 42 23     46% 38   30.29 30.3      
Apr 21 23:55 W 8 10 Clear CLR 44 23     43% 40   30.28 30.29      
Apr 21 22:55 NW 5 10 Clear CLR 44 25     47% 41   30.28 30.29      
Apr 21 21:55 WNW 6 10 Clear CLR 45 25     45% 42   30.28 30.29      
Apr 21 20:55 NW 10 10 Clear CLR 48 25     40% 43   30.28 30.29      
Apr 21 19:55 WNW 16 10 Clear CLR 50 25     37% 44   30.27 30.27      
Apr 21 18:55   10 Clear CLR 51 24     35%     30.27 30.28      
Apr 21 17:55 NW 18 10 Clear CLR 52 25     35%     30.28 30.29      
Apr 21 16:55 WNW 18 10 Clear CLR 53 21     28%     30.27 30.28      
Apr 21 15:55 WNW 20 10 Clear and Windy CLR 56 22     26%     30.27 30.27      
Apr 21 14:55 NW 17 10 Cloudy OVC095 57 20     23%     30.26 30.26      
Apr 21 13:55 NW 24 10 Clear and Windy CLR 59 17     19%     30.24 30.24      
Apr 21 12:55   10 Cloudy OVC090 58 19     22%     30.23 30.23      
Apr 21 11:55   10 Mostly Clear FEW085 57 21     24%     30.21 30.21      
Apr 21 10:55   10 Clear CLR 55 20     25%     30.21 30.2      
Apr 21 09:55 WNW 6 10 Clear CLR 53 25     33%     30.2 30.21      
Apr 21 08:55   10 Clear CLR 51 25     36%     30.19 30.19      
Apr 21 07:55   10 Clear CLR 50 25     37%     30.16 30.16      
Apr 21 06:55 W 14 10 Clear CLR 49 27     42% 44   30.14 30.14      
Apr 21 05:55 WNW 9 10 Clear CLR 47 32     56% 43   30.12 30.11      
Apr 21 04:55 W 14 10 Cloudy BKN090 OVC110 51 31     46%     30.1 30.09      
Apr 21 03:55 WNW 16 10 Partly Cloudy FEW075 SCT100 52 31     44%     30.08 30.07      
Apr 21 02:55 SSW 3 10 Mostly Clear FEW090 52 31     44%     30.05 30.05      
Apr 21 01:55 N 8 10 Cloudy BKN075 OVC100 53 33     46%     30.05 30.04      
Apr 21 00:55 S 3 10 Cloudy OVC090 53 35     50%     30.06 30.06      
Apr 20 23:55 NW 5 10 Cloudy SCT075 OVC090 55 33     43%     30.06 30.06      
Apr 20 22:55 NNW 11 10 Cloudy OVC090 56 32     40%     30.06 30.06     0
Apr 20 21:55 NW 13 10 Cloudy OVC095 57 32     39%     30.07 30.07      
Apr 20 20:55 NW 13 10 Cloudy OVC100 58 32     37%     30.06 30.06      
Apr 20 19:55 NW 9 10 Cloudy OVC100 61 31     32%     30.04 30.04   0  
Apr 20 18:55 W 9 10 Cloudy OVC090 64 32     30%     30.05 30.05 0    
Apr 20 17:55 ENE 3 10 Cloudy FEW060 BKN095 OVC120 65 31     28%     30.06 30.06      
Apr 20 16:55 ESE 7 10 Clear CLR 65 31     28%     30.07 30.07      
Apr 20 15:55 ESE 9 10 Mostly Clear FEW120 66 33     29%     30.08 30.08      
Apr 20 14:55 ESE 9 10 Clear CLR 64 32     30%     30.11 30.11      
Apr 20 13:55 ESE 9 10 Clear CLR 64 30     28%     30.13 30.12      
Apr 20 12:55 5 10 Clear CLR 61 29     30%     30.15 30.15      
Apr 20 11:55 S 5 10 Clear CLR 59 30     33%     30.17 30.17      
Apr 20 10:55 Calm 10 Clear CLR 57 31     37%     30.18 30.19      
Apr 20 09:55 Calm 10 Clear CLR 53 33     46%     30.19 30.19      
Apr 20 08:55 WNW 9 10 Clear CLR 51 32     48%     30.2 30.2      
Apr 20 07:55 WNW 8 10 Clear CLR 48 32     54% 44   30.2 30.2      
Apr 20 06:55 NW 8 10 Clear CLR 48 31     51% 44   30.19 30.19      
Apr 20 05:55 NW 10 10 Clear CLR 46 31     55% 41   30.17 30.17      
Apr 20 04:55 Calm 10 Clear CLR 47 31     53%     30.17 30.17      
Apr 20 03:55 NNW 8 10 Clear CLR 48 31     51% 44   30.18 30.18      
Apr 20 02:55 NNW 7 10 Clear CLR 47 32     56% 44   30.18 30.18      
Apr 20 01:55   10 Clear CLR 49 32     52%     30.17 30.17      
Apr 20 00:55 WNW 10 10 Clear CLR 49 33     54% 45   30.17 30.17      
Apr 19 23:55 WNW 15 10 Clear CLR 51 33     50%     30.16 30.16      
Apr 19 22:55 NW 8 10 Clear CLR 51 33     50%     30.17 30.17      
Apr 19 20:55 WNW 7 10 Clear CLR 52 31     44%     30.15 30.16      
Jun 12 00:55 W 13 10 Clear CLR 60 43     53%     29.85 29.84      
Jun 11 21:55 WNW 14 10 Clear CLR 65 42     43%     29.86 29.85      
Jun 11 19:55 WNW 7 10 Clear   72 37     28%   70 29.85 29.83      
Jun 11 08:55   10 Clear CLR 60 39     46%     29.96 29.95      
Jun 10 01:55 NW 11 10 Clear CLR 52 36     54%     29.74 29.74      
Jun 10 00:55 NW 14 10 Clear CLR 53 35     50%     29.74 29.73      
Jun 09 22:55 WNW 14 10 Clear CLR 57 35     44%     29.73 29.72     0
Jun 09 20:55 WNW 11 10 Clear CLR 61 35     38%     29.69 29.68      
Jun 09 10:55 6 10 Clear CLR 60 35     39%     29.8 29.79      
Jun 08 11:55   8 Rain BKN055 BKN075 OVC090 64 57     78%     29.63 29.61 0    
Jun 08 07:55 S 10 10 Clear CLR 71 51     49%   70 29.57 29.54      
Jun 05 19:55 SE 7 10 Clear   71 35     27%   69 30.06 30.05